Location: Maynard F. Jordan Observatory
(44.9000°N, 68.6700°W)
Time: 14:42:45
(UTC-04:00)

Daily predictions for brighter satellites

Satellite Brightness Start Highest point End
(mag) Time Altitude Azimuth Time Altitude Azimuth Time Altitude Azimuth
Cosmos 220 Rocket 4.4 19:46:04 10° N 19:50:07 42° ENE 19:54:08 10° SE
NOSS 3-4 (A) 4.1 19:45:11 10° NW 19:52:10 72° WSW 19:59:32 10° SSE
NOSS 3-4 (C) 4.1 19:45:18 10° NW 19:52:18 72° WSW 19:59:40 10° SSE
CZ-4 DEB 4.3 19:50:46 10° ESE 19:53:06 19° ENE 19:55:27 10° NNE
Cosmos 1697 Rocket 3.7 19:49:01 10° SSE 19:53:26 24° ESE 19:57:50 10° NE
Cosmos 1934 Rocket 4.0 19:53:29 10° S 19:59:37 84° E 20:05:55 10° N
Cosmos 2278 3.7 19:54:48 10° SSW 20:00:26 71° ESE 20:06:08 10° NNE
EO 1 Delta rocket 4.0 19:56:42 10° NNE 20:01:19 59° E 20:06:34 10° S
Resurs 01 Rocket 3.3 20:03:07 10° SSW 20:07:13 37° W 20:11:22 10° NNW
Cosmos 1544 Rocket 4.2 20:05:54 10° SSW 20:10:15 62° W 20:14:39 10° N
ALOS 2.5 20:06:39 10° S 20:11:18 75° WSW 20:16:01 10° NNW
Cosmos 2208 Rocket 4.2 20:07:57 10° SSW 20:13:17 80° WNW 20:18:44 10° NNE
Cosmos 2369 3.7 20:08:52 10° SSW 20:14:32 82° ESE 20:20:16 10° NNE
Cosmos 1980 Rocket 3.3 20:12:10 10° SSE 20:16:28 23° E 20:20:48 10° NE
Cosmos 1975 2.9 20:13:15 10° S 20:17:16 57° E 20:21:19 10° NNE
H-2A R/B 3.0 20:13:48 10° S 20:17:40 72° WSW 20:21:38 10° NNW
Cosmos 2298 Rocket 4.1 20:13:08 10° NNW 20:18:25 63° ENE 20:23:35 11° SSE
NOSS 7 (H) 4.2 20:16:22 10° SSW 20:19:39 75° SE 20:23:09 10° NE
Lacrosse 5 rocket 1.9 20:19:14 10° WNW 20:22:48 44° SW 20:25:57 12° SSE
Envisat 3.5 20:20:12 12° SE 20:24:31 42° ENE 20:29:18 10° N
Cosmos 1937 Rocket 3.9 20:19:55 10° N 20:25:01 48° ENE 20:29:04 16° SE
USA 186 2.2 20:22:30 10° S 20:25:33 56° W 20:28:24 10° NNW
Iridium 4 Rocket 3.3 20:20:40 10° N 20:25:48 68° E 20:30:26 10° S
OTV 4 3.0 20:32:03 10° SW 20:32:55 11° SSW 20:33:46 10° S
Meteor 1-12 Rocket 4.4 20:31:28 10° S 20:37:13 85° W 20:43:07 10° N
Cosmos 990 Rocket 4.4 20:32:33 10° N 20:37:37 45° ENE 20:40:49 21° SE
H-2A R/B 4.0 20:37:13 10° ENE 20:38:47 11° NE 20:40:23 10° NE
Cosmos 2263 Rocket 4.1 20:37:34 10° N 20:40:50 15° NE 20:43:48 11° ENE
Cosmos 1666 4.5 20:41:28 16° ENE 20:41:28 16° ENE 20:43:19 10° NE
Cosmos 1656 3.6 20:35:49 10° SSW 20:41:25 77° ESE 20:46:59 10° NNE
Cosmos 2227 Rocket 3.4 20:37:57 10° NW 20:43:12 40° WSW 20:48:24 10° S
Cosmos 2173 Rocket 4.2 20:37:31 10° SSE 20:43:39 53° E 20:49:47 10° NNE
Cosmos 2150 Rocket 3.9 20:39:23 10° NNW 20:44:33 89° NE 20:48:42 16° SSE
Tiangong 1 1.3 20:43:35 10° W 20:46:37 50° S 20:47:24 38° SE
Cosmos 2322 Rocket 3.9 20:50:53 15° E 20:50:53 15° E 20:52:41 10° ENE
Cosmos 1825 Rocket 3.7 20:45:56 10° N 20:50:17 53° ENE 20:52:30 26° SE
Cosmos 1500 3.1 20:47:50 10° S 20:51:36 87° W 20:55:24 10° N
ERS-1 Rocket 3.0 20:48:09 13° SSE 20:52:43 85° WSW 20:57:46 10° NNW
Cosmos 1939 Rocket 2.9 20:49:57 20° SSE 20:52:47 83° ENE 20:56:59 10° N
Lacrosse 5 1.8 20:49:03 10° NW 20:54:09 83° SW 20:56:52 28° SE
Cosmos 2100 Rocket 3.9 20:50:58 10° S 20:57:12 73° E 21:03:25 10° NNE
SPOT 1/Viking Rocket 4.4 20:55:28 25° ESE 20:57:25 33° ENE 21:02:03 10° N
Cosmos 2297 Rocket 3.3 20:53:13 10° NW 20:58:30 42° WSW 21:03:46 10° S
Cosmos 1953 Rocket 3.8 20:56:10 10° N 21:00:32 51° ENE 21:02:06 34° SE
Cosmos 1340 2.7 20:57:06 10° N 21:00:52 58° ENE 21:01:54 41° SE
SPOT 5 3.0 21:00:31 29° SE 21:02:58 59° ENE 21:07:41 10° N
Cosmos 1898 Rocket 4.0 20:58:29 10° NNW 21:03:43 60° WSW 21:07:49 16° S
Cosmos 2061 Rocket 3.9 20:57:54 10° S 21:04:11 75° E 21:10:26 10° NNE
YAOGAN 6 3.1 21:04:21 40° E 21:04:48 42° ENE 21:08:20 10° N
Cosmos 1763 Rocket 3.6 21:01:52 18° S 21:05:18 46° ESE 21:10:09 10° NNE
H-2A R/B 1.9 21:03:38 35° SSE 21:05:18 72° ENE 21:09:27 10° N
Cosmos 2227 4.3 20:59:40 10° NNW 21:05:24 63° ENE 21:08:05 31° SE
Nimbus 7 Rocket 4.4 21:03:01 10° NNE 21:09:02 61° ESE 21:14:50 11° S
Cosmos 1125 Rocket 4.2 21:05:01 10° N 21:09:51 37° ENE 21:11:19 31° E
PSLV R/B 4.1 21:13:17 36° NE 21:13:17 36° NE 21:15:38 10° N
MetOp-A 4.1 21:13:18 32° SSE 21:15:47 71° ENE 21:21:08 10° N
Cosmos 2228 4.1 21:17:46 28° ENE 21:17:46 28° ENE 21:20:43 10° NNE
RESURS DK-1 2.9 21:14:55 10° NW 21:18:58 54° WSW 21:20:28 34° S
Cosmos 1758 Rocket 3.4 21:15:00 10° N 21:19:21 68° E 21:20:18 50° SE
USA 215 3.8 21:15:54 22° E 21:19:54 50° NNE 21:26:09 10° NW
deb Chang Zheng 4 3.5 21:16:18 10° NNE 21:20:47 82° ESE 21:23:15 26° S
Cosmos 468 Rocket 4.4 21:16:00 10° SSW 21:21:04 64° WNW 21:26:12 10° NNE
CZ-4 SHROUD 4.2 21:26:35 39° NNE 21:26:35 39° NNE 21:28:46 10° N
Cosmos 841 Rocket 3.4 21:24:56 27° S 21:27:45 65° ESE 21:32:56 10° NNE
Cosmos 1743 3.3 21:26:38 22° SSW 21:29:01 58° W 21:32:55 10° N
Cosmos 1459 Rocket 4.2 21:23:21 10° SSW 21:29:22 70° W 21:35:30 10° N
Cosmos 1725 Rocket 4.0 21:28:17 35° SSE 21:30:47 60° E 21:36:55 10° NNE
Cosmos 1814 Rocket 4.5 21:26:15 10° SSW 21:31:32 62° WNW 21:36:49 10° NNE
Terra 3.1 21:32:33 26° ENE 21:32:33 26° ENE 21:36:27 10° N
SL-19 R/B 4.2 21:29:00 10° NNE 21:34:24 56° ESE 21:35:23 49° SE
BREEZE-M DEB (TANK) 4.5 21:23:01 10° SW 21:36:07 47° SSE 21:37:28 41° ESE
Cosmos 1697 Rocket 3.4 21:31:28 10° SW 21:37:00 55° WNW 21:42:33 10° NNE
SL-16 R/B 2.8 21:46:17 39° E 21:46:17 39° E 21:50:36 10° NE
Cosmos 2058 Rocket 3.0 21:45:00 67° S 21:45:36 89° WNW 21:50:09 10° N
NOAA 11 4.1 21:46:05 55° SSE 21:47:22 82° ENE 21:52:52 10° NNW
ASTEX 1 3.7 21:45:41 10° N 21:50:40 67° W 21:52:41 35° SSW
Cosmos 1606 Rocket 4.4 21:50:20 26° SW 21:52:29 48° WNW 21:56:48 10° N
ARGOS 3.0 21:53:32 60° SSE 21:54:34 88° WSW 22:00:01 10° NNW
Cosmos 372 Rocket 4.1 21:50:09 10° NNW 21:55:12 54° ENE 21:55:17 54° ENE
Cosmos 1842 3.8 21:51:27 10° NNW 21:55:11 55° W 21:55:11 55° W
Cosmos 2233 Rocket 4.0 21:55:16 55° ESE 21:55:57 58° E 22:02:04 10° NNE
Cosmos 1980 Rocket 2.7 21:54:26 10° SW 22:00:01 58° WNW 22:05:40 10° NNE
Cosmos 2360 Rocket 4.2 22:04:05 14° ENE 22:04:05 14° ENE 22:05:09 10° NE
CARTOSAT-1 4.5 22:04:38 39° NNE 22:04:38 39° NNE 22:07:49 10° N
Cosmos 1666 4.2 22:16:27 34° WNW 22:16:27 34° WNW 22:19:46 10° N
H-2A R/B 2.0 22:17:51 72° NNE 22:17:51 72° NNE 22:22:22 10° NNW
Meteor 2-5 Rocket 3.8 22:12:30 10° N 22:18:27 69° ENE 22:18:28 69° E
CZ-4B R/B 3.5 22:16:31 10° N 22:21:05 70° NW 22:21:05 70° NW
Cosmos 2263 Rocket 2.1 22:20:09 10° NNW 22:25:29 75° NE 22:25:29 75° NE
Cosmos 1375 Rocket 4.4 22:25:11 63° SSW 22:26:21 84° ESE 22:33:00 10° NE
Cosmos 2322 Rocket 2.2 22:32:37 77° WNW 22:32:42 77° WNW 22:38:22 10° NNE
Lacrosse 5 4.1 22:33:33 10° W 22:36:04 15° WSW 22:36:04 15° WSW
Meteor 1-24 Rocket 4.1 22:31:53 10° N 22:37:21 57° NE 22:37:21 57° NE
Cosmos 1464 Rocket 4.3 22:41:24 56° ENE 22:41:24 56° ENE 22:46:53 10° NNE
USA 215 3.3 23:03:14 64° WSW 23:03:14 64° WSW 23:09:18 10° NW
Terra 3.3 23:11:26 32° WNW 23:11:26 32° WNW 23:14:35 10° NNW
Cosmos 2278 Rocket 3.8 23:08:35 10° N 23:13:01 25° NE 23:13:01 25° NE
SL-16 R/B 3.7 23:28:05 29° W 23:29:29 33° NW 23:34:36 10° N
Cosmos 1844 Rocket 3.6 23:32:37 10° NNW 23:36:28 43° N 23:36:28 43° N
Cosmos 2360 Rocket 3.2 23:45:50 44° N 23:45:50 44° N 23:49:59 10° NNE
